"startDT [UTC]","vpos","CH4 [ppm]","stdev(CH4) [ppm]","CO2 [ppm]","stdev(CO2) [ppm]","H2O [ppm]","stdev(H2O)","p_LGR [torr]","T_LGR [C]","mt1_LGR [us]","mt2_LGR [us]","T_ECpre [C]","T_EC1 [C]","T_EC2 [C]","p_inlet [hPa]","p_in [hPa]","p_out [hPa]","T_inlet [C]","RH_inlet [%]","dwpt_inlet [C]","T_vent [C]","RH_vent [%]","dwpt_vent [C]","flow_vent [l min-1]","flow_inlet [l min-1]","dwpt_sample [C]","T_room [C]"
2012-02-25 00:00:00,0.0,1.9347,0.0010,402.84,0.28,-1.0,0.0,138.21,24.70,24.58,36.23,0.04,-272.73,-272.73,-44,548,-936,17.6,0.5,-46.5,18.0,0.5,-45.9,5.73,2.44,-38.5,24.0
2012-02-25 00:01:00,0.0,1.9342,0.0011,402.88,0.25,-1.0,0.0,138.21,24.70,24.57,36.23,0.04,-272.73,-272.73,-45,548,-936,17.6,0.4,-46.8,18.0,0.5,-45.9,5.73,2.44,-38.5,24.0
2012-02-25 00:02:00,0.0,1.9330,0.0009,402.69,0.28,-1.0,0.0,138.21,24.70,24.57,36.23,0.04,-272.73,-272.73,-44,548,-936,17.6,0.4,-46.9,17.9,0.5,-45.9,5.73,2.49,-38.5,24.1
2012-02-25 00:03:00,0.0,1.9335,0.0008,402.78,0.27,-1.0,0.0,138.21,24.69,24.57,36.23,0.04,-272.73,-272.73,-45,548,-936,17.6,0.4,-47.0,18.0,0.5,-45.8,5.73,2.39,-38.5,24.1
2012-02-25 00:04:00,0.0,1.9333,0.0010,402.70,0.28,-1.0,0.0,138.21,24.70,24.57,36.23,0.04,-272.73,-272.73,-44,548,-936,17.5,0.4,-47.0,17.9,0.5,-45.9,5.73,2.53,-38.5,24.0
2012-02-25 00:05:00,0.0,1.9331,0.0008,402.82,0.27,-1.0,0.0,138.21,24.70,24.58,36.22,0.04,-272.73,-272.73,-45,548,-936,17.6,0.4,-46.8,17.9,0.5,-45.8,5.73,2.38,-38.5,24.0
2012-02-25 00:06:00,0.0,1.9325,0.0009,402.84,0.26,-1.0,0.0,138.21,24.69,24.58,36.23,0.04,-272.73,-272.74,-44,548,-936,17.5,0.4,-47.1,18.0,0.5,-45.8,5.73,2.52,-38.5,24.0
2012-02-25 00:07:00,0.0,1.9324,0.0010,402.74,0.30,-1.0,0.0,138.21,24.69,24.58,36.23,0.04,-272.73,-272.73,-45,548,-936,17.6,0.4,-47.0,18.0,0.5,-45.8,5.73,2.41,-38.5,24.0
2012-02-25 00:08:00,0.0,1.9320,0.0008,402.61,0.29,-1.0,0.0,138.21,24.69,24.58,36.24,0.04,-272.73,-272.73,-44,548,-936,17.5,0.5,-46.6,17.9,0.5,-45.9,5.73,2.47,-38.5,24.0
2012-02-25 00:09:00,0.0,1.9310,0.0008,402.67,0.31,-1.0,0.0,138.21,24.69,24.57,36.23,0.04,-272.73,-272.74,-45,548,-936,17.6,0.5,-46.5,17.9,0.5,-45.9,5.73,2.47,-38.5,24.0
2012-02-25 00:10:00,0.0,1.9301,0.0008,402.78,0.28,-1.0,0.0,138.21,24.69,24.57,36.23,0.04,-272.73,-272.73,-44,548,-936,17.6,0.5,-46.5,18.0,0.5,-45.8,5.73,2.41,-38.5,24.0
2012-02-25 00:11:00,0.0,1.9301,0.0010,402.77,0.31,-1.0,0.0,138.21,24.69,24.57,36.23,0.04,-272.73,-272.73,-45,548,-936,17.6,0.5,-46.5,18.0,0.5,-45.3,5.73,2.51,-38.5,24.0
2012-02-25 00:12:00,0.0,1.9305,0.0012,402.86,0.35,-1.0,0.0,138.21,24.69,24.57,36.22,0.04,-272.73,-272.73,-44,548,-936,17.6,0.5,-46.6,18.0,0.5,-45.4,5.73,2.38,-38.5,24.0
2012-02-25 00:13:00,0.0,1.9313,0.0009,402.76,0.30,-1.0,0.0,138.21,24.69,24.57,36.22,0.04,-272.73,-272.73,-45,548,-936,17.6,0.5,-46.6,17.9,0.5,-45.3,5.73,2.53,-38.5,24.0
2012-02-25 00:14:00,0.0,1.9319,0.0010,402.80,0.27,-1.0,0.0,138.21,24.69,24.57,36.23,0.04,-272.73,-272.73,-44,548,-936,17.6,0.5,-46.6,18.0,0.5,-45.4,5.73,2.39,-38.5,24.0
2012-02-25 00:15:00,0.0,1.9325,0.0011,402.63,0.30,-1.0,0.0,138.20,24.69,24.57,36.24,0.04,-272.73,-272.73,-45,548,-936,17.6,0.5,-46.5,18.0,0.5,-45.4,5.73,2.49,-38.5,24.0
2012-02-25 00:16:00,0.0,1.9323,0.0008,402.78,0.30,-1.0,0.0,138.21,24.69,24.58,36.23,0.23,-271.29,-272.72,-44,548,-936,17.6,0.5,-46.5,18.0,0.5,-45.4,5.42,2.45,-41.8,24.0
2012-02-25 00:17:00,0.0,1.9321,0.0008,402.82,0.27,-1.0,0.0,138.21,24.69,24.58,36.22,0.04,-272.73,-272.73,-45,548,-936,17.6,0.5,-46.5,18.0,0.5,-45.4,5.73,2.44,-38.5,24.0
2012-02-25 00:18:00,0.0,1.9316,0.0010,402.79,0.26,-1.0,0.0,138.21,24.68,24.58,36.23,0.04,-272.73,-272.73,-45,548,-936,17.6,0.5,-46.5,18.0,0.5,-45.4,5.73,2.50,-38.5,24.0
2012-02-25 00:19:00,0.0,1.9315,0.0010,402.67,0.33,-1.0,0.0,138.21,24.68,24.57,36.23,0.04,-272.73,-272.73,-45,548,-936,17.6,0.5,-46.5,18.0,0.5,-45.4,5.73,2.39,-38.5,24.0
2012-02-25 00:20:00,0.0,1.9316,0.0007,402.74,0.25,-1.0,0.0,138.21,24.67,24.57,36.23,0.04,-272.73,-272.73,-45,548,-936,17.6,0.5,-46.6,18.0,0.5,-45.4,5.73,2.53,-38.5,24.1
2012-02-25 00:21:00,0.0,1.9318,0.0008,402.76,0.28,-1.0,0.0,138.21,24.68,24.57,36.23,0.04,-272.73,-272.73,-45,548,-936,17.6,0.5,-46.5,18.0,0.5,-45.3,5.73,2.38,-38.5,24.1
2012-02-25 00:22:00,0.0,1.9326,0.0009,402.74,0.28,-1.0,0.0,138.21,24.68,24.57,36.23,0.04,-272.73,-272.73,-45,548,-937,17.6,0.5,-46.6,18.0,0.5,-45.3,5.73,2.51,-38.5,24.1
2012-02-25 00:23:00,0.0,1.9331,0.0008,402.73,0.28,-1.0,0.0,138.20,24.68,24.57,36.23,0.04,-272.73,-272.74,-45,548,-936,17.6,0.5,-46.5,18.0,0.5,-45.4,5.73,2.42,-38.5,24.0
2012-02-25 00:24:00,0.0,1.9317,0.0009,402.64,0.28,-1.0,0.0,138.21,24.69,24.57,36.24,0.04,-272.73,-272.73,-45,548,-936,17.6,0.5,-46.0,18.0,0.5,-45.3,5.73,2.45,-38.5,24.0
2012-02-25 00:25:00,0.0,1.9323,0.0010,402.91,0.22,-1.0,0.0,138.21,24.69,24.57,36.23,0.04,-272.73,-272.73,-45,548,-936,17.6,0.5,-46.0,18.0,0.5,-45.4,5.73,2.48,-38.5,24.1
2012-02-25 00:26:00,0.0,1.9329,0.0009,402.82,0.29,-1.0,0.0,138.20,24.69,24.58,36.22,0.04,-272.73,-272.73,-45,548,-936,17.6,0.5,-46.0,18.0,0.5,-45.3,5.73,2.40,-38.5,24.0
2012-02-25 00:27:00,0.0,1.9319,0.0008,402.78,0.28,-1.0,0.0,138.21,24.69,24.57,36.23,0.04,-272.73,-272.73,-45,548,-936,17.6,0.5,-46.0,18.0,0.5,-45.0,5.73,2.52,-38.5,24.0
2012-02-25 00:28:00,0.0,1.9312,0.0010,402.71,0.25,-1.0,0.0,138.21,24.69,24.58,36.23,0.04,-272.73,-272.73,-45,548,-936,17.6,0.5,-45.9,18.0,0.5,-44.9,5.73,2.38,-38.5,24.1
2012-02-25 00:29:00,0.0,1.9316,0.0011,402.71,0.32,-1.0,0.0,138.21,24.69,24.57,36.23,0.04,-272.73,-272.73,-45,548,-936,17.6,0.5,-46.0,18.0,0.5,-44.9,5.73,2.51,-38.5,24.1
2012-02-25 00:30:00,0.0,1.9315,0.0010,402.75,0.31,-1.0,0.0,138.20,24.69,24.57,36.23,0.04,-272.73,-272.73,-45,548,-936,17.6,0.5,-46.0,18.0,0.5,-44.9,5.73,2.42,-38.5,24.1
2012-02-25 00:31:00,0.0,1.9317,0.0010,402.81,0.25,-1.0,0.0,138.21,24.69,24.57,36.23,0.04,-272.73,-272.73,-45,548,-936,17.6,0.5,-45.9,18.0,0.5,-44.9,5.73,2.45,-38.5,24.0
2012-02-25 00:32:00,0.0,1.9308,0.0008,402.79,0.29,-1.0,0.0,138.20,24.69,24.58,36.23,0.04,-272.73,-272.73,-45,548,-937,17.6,0.5,-46.0,18.0,0.5,-44.9,5.73,2.48,-38.5,24.0
2012-02-25 00:33:00,0.0,1.9312,0.0011,402.76,0.26,-1.0,0.0,138.21,24.69,24.58,36.23,0.04,-272.73,-272.74,-45,548,-936,17.7,0.5,-45.9,18.1,0.5,-44.8,5.73,2.39,-38.5,24.0
2012-02-25 00:34:00,0.0,1.9302,0.0009,402.83,0.25,-1.0,0.0,138.21,24.70,24.57,36.22,0.04,-272.73,-272.73,-45,548,-936,17.6,0.5,-46.0,18.1,0.5,-44.8,5.73,2.52,-38.5,24.0
2012-02-25 00:35:00,0.0,1.9312,0.0009,402.75,0.33,-1.0,0.0,138.21,24.69,24.57,36.23,0.04,-272.73,-272.73,-45,548,-937,17.7,0.5,-45.9,18.1,0.5,-44.8,5.73,2.38,-38.5,24.1
2012-02-25 00:36:00,0.0,1.9305,0.0009,402.79,0.25,-1.0,0.0,138.21,24.69,24.58,36.23,0.04,-272.73,-272.73,-45,548,-936,17.6,0.5,-45.9,18.1,0.5,-44.8,5.73,2.51,-38.5,24.1
2012-02-25 00:37:00,0.0,1.9299,0.0010,402.80,0.26,-1.0,0.0,138.21,24.69,24.58,36.23,0.04,-272.73,-272.74,-45,549,-936,17.7,0.5,-46.0,18.1,0.5,-44.8,5.73,2.43,-38.5,24.1
2012-02-25 00:38:00,0.0,1.9297,0.0009,402.77,0.27,-1.0,0.0,138.21,24.68,24.58,36.23,0.04,-272.73,-272.73,-45,549,-936,17.7,0.5,-45.9,18.1,0.5,-44.9,5.73,2.44,-38.5,24.0
2012-02-25 00:39:00,0.0,1.9290,0.0009,402.65,0.25,-1.0,0.0,138.21,24.68,24.58,36.23,0.04,-272.73,-272.73,-45,548,-936,17.7,0.5,-46.0,18.1,0.5,-44.8,5.73,2.49,-38.5,24.1
2012-02-25 00:40:00,0.0,1.9286,0.0007,402.69,0.24,-1.0,0.0,138.20,24.68,24.58,36.23,0.04,-272.73,-272.73,-45,549,-936,17.7,0.5,-46.0,18.1,0.5,-44.7,5.73,2.39,-38.5,24.1
2012-02-25 00:41:00,0.0,1.9287,0.0008,402.74,0.31,-1.0,0.0,138.20,24.68,24.57,36.23,0.04,-272.73,-272.73,-45,548,-936,17.7,0.5,-45.4,18.1,0.6,-44.4,5.73,2.52,-38.5,24.1
2012-02-25 00:42:00,0.0,1.9286,0.0010,402.65,0.29,-1.0,0.0,138.21,24.67,24.57,36.23,0.04,-272.73,-272.73,-45,549,-937,17.7,0.5,-45.5,18.1,0.6,-44.4,5.73,2.38,-38.5,24.1
2012-02-25 00:43:00,0.0,1.9286,0.0009,402.76,0.25,-1.0,0.0,138.21,24.67,24.58,36.23,0.04,-272.73,-272.73,-45,549,-936,17.7,0.5,-45.4,18.1,0.6,-44.4,5.73,2.51,-38.5,24.1
2012-02-25 00:44:00,0.0,1.9292,0.0008,402.73,0.23,-1.0,0.0,138.21,24.67,24.58,36.23,0.04,-272.73,-272.73,-45,549,-936,17.7,0.5,-45.4,18.1,0.6,-44.4,5.73,2.43,-38.5,24.1
2012-02-25 00:45:00,0.0,1.9301,0.0009,402.63,0.23,-1.0,0.0,138.20,24.67,24.57,36.24,0.04,-272.73,-272.73,-45,549,-936,17.7,0.5,-45.5,18.1,0.6,-44.4,5.73,2.43,-38.5,24.1
2012-02-25 00:46:00,0.0,1.9301,0.0009,402.70,0.26,-1.0,0.0,138.21,24.67,24.58,36.23,0.04,-272.73,-272.73,-45,549,-936,17.7,0.5,-45.9,18.1,0.5,-44.8,5.73,2.51,-38.5,24.1
2012-02-25 00:47:00,0.0,1.9301,0.0008,402.73,0.31,-1.0,0.0,138.20,24.67,24.58,36.23,0.04,-272.73,-272.73,-45,549,-936,17.7,0.5,-46.0,18.1,0.5,-45.1,5.73,2.38,-38.5,24.1
2012-02-25 00:48:00,0.0,1.9309,0.0009,402.70,0.27,-1.0,0.0,138.21,24.67,24.57,36.23,0.04,-272.73,-272.73,-45,549,-936,17.7,0.5,-46.4,18.1,0.5,-45.3,5.73,2.52,-38.5,24.1
2012-02-25 00:49:00,0.0,1.9307,0.0010,402.70,0.30,-1.0,0.0,138.21,24.67,24.58,36.23,0.04,-272.73,-272.73,-45,549,-936,17.7,0.5,-46.5,18.1,0.5,-45.3,5.73,2.39,-38.5,24.1
2012-02-25 00:50:00,0.0,1.9318,0.0009,402.78,0.26,-1.0,0.0,138.21,24.67,24.57,36.23,0.04,-272.73,-272.73,-45,549,-937,17.7,0.5,-46.5,18.1,0.5,-45.3,5.73,2.49,-38.5,24.1
2012-02-25 00:51:00,0.0,1.9334,0.0011,402.79,0.24,-1.0,0.0,138.21,24.67,24.57,36.23,0.04,-272.73,-272.73,-45,549,-936,17.7,0.5,-46.6,18.1,0.5,-45.3,5.73,2.43,-38.5,24.1
2012-02-25 00:52:00,0.0,1.9357,0.0012,402.81,0.29,-1.0,0.0,138.21,24.67,24.57,36.23,0.04,-272.73,-272.73,-45,549,-936,17.7,0.5,-46.5,18.1,0.5,-45.3,5.73,2.43,-38.5,24.1
2012-02-25 00:53:00,0.0,1.9380,0.0012,402.93,0.23,-1.0,0.0,138.21,24.67,24.57,36.23,0.04,-272.73,-272.73,-45,549,-937,17.7,0.5,-46.3,18.1,0.5,-45.3,5.73,2.51,-38.5,24.0
2012-02-25 00:54:00,0.0,1.9426,0.0025,403.01,0.30,-1.0,0.0,138.21,24.67,24.57,36.23,0.04,-272.74,-272.73,-45,549,-936,17.7,0.5,-46.0,18.1,0.5,-45.1,5.73,2.38,-38.5,24.1
2012-02-25 00:55:00,0.0,1.9453,0.0009,403.04,0.25,-1.0,0.0,138.21,24.67,24.58,36.23,0.04,-272.73,-272.73,-45,549,-936,17.7,0.5,-45.8,18.1,0.5,-44.8,5.73,2.51,-38.5,24.1
2012-02-25 00:56:00,0.0,1.9456,0.0010,402.90,0.26,-1.0,0.0,138.21,24.67,24.57,36.23,0.04,-272.74,-272.73,-45,549,-936,17.7,0.5,-45.3,18.1,0.6,-44.3,5.73,2.41,-38.5,24.0
2012-02-25 00:57:00,0.0,1.9466,0.0009,402.96,0.29,-1.0,0.0,138.21,24.67,24.58,36.23,0.04,-272.73,-272.73,-45,549,-936,17.7,0.5,-45.0,18.1,0.6,-44.0,5.73,2.47,-38.4,24.0
2012-02-25 00:58:00,0.0,1.9469,0.0009,402.97,0.29,-1.0,0.0,138.21,24.67,24.58,36.23,0.04,-272.73,-272.73,-45,549,-936,17.8,0.6,-44.7,18.1,0.6,-43.9,5.73,2.46,-38.5,24.1
2012-02-25 00:59:00,0.0,1.9476,0.0009,402.93,0.26,-1.0,0.0,138.21,24.67,24.57,36.23,0.04,-272.73,-272.73,-45,549,-936,17.8,0.6,-44.6,18.1,0.6,-43.6,5.73,2.40,-38.5,24.1
2012-02-25 01:00:00,0.0,1.9468,0.0008,403.02,0.30,-1.0,0.0,138.21,24.67,24.58,36.23,0.04,-272.73,-272.73,-45,549,-936,17.8,0.6,-44.5,18.1,0.6,-43.6,5.73,2.52,-38.5,24.1
2012-02-25 01:01:00,0.0,1.9476,0.0009,403.02,0.28,-1.0,0.0,138.21,24.67,24.57,36.23,0.04,-272.73,-272.73,-45,549,-936,17.8,0.6,-44.3,18.1,0.6,-43.4,5.73,2.38,-38.5,24.1
2012-02-25 01:02:00,0.0,1.9476,0.0012,403.01,0.27,-1.0,0.0,138.21,24.68,24.57,36.23,0.04,-272.73,-272.73,-45,549,-936,17.8,0.6,-44.1,18.1,0.6,-43.1,5.73,2.50,-38.5,24.1
2012-02-25 01:03:00,0.0,1.9474,0.0008,403.02,0.25,-1.0,0.0,138.20,24.68,24.57,36.23,0.04,-272.73,-272.73,-45,549,-936,17.8,0.6,-44.0,18.1,0.6,-43.1,5.73,2.43,-38.5,24.1
2012-02-25 01:04:00,0.0,1.9480,0.0011,403.00,0.26,-1.0,0.0,138.21,24.67,24.57,36.23,0.04,-272.73,-272.73,-45,549,-936,17.8,0.6,-44.0,18.1,0.6,-43.1,5.73,2.42,-38.5,24.1
2012-02-25 01:05:00,0.0,1.9472,0.0009,403.00,0.23,-1.0,0.0,138.20,24.67,24.57,36.23,0.04,-272.73,-272.73,-45,549,-936,17.8,0.6,-44.0,18.1,0.6,-43.1,5.73,2.51,-38.5,24.1
2012-02-25 01:06:00,0.0,1.9472,0.0010,402.93,0.26,-1.0,0.0,138.21,24.67,24.57,36.23,0.04,-272.73,-272.73,-45,549,-936,17.8,0.6,-43.6,18.2,0.7,-42.9,5.73,2.37,-38.5,24.1
2012-02-25 01:07:00,0.0,1.9475,0.0009,402.95,0.25,-1.0,0.0,138.21,24.67,24.57,36.23,0.04,-272.73,-272.73,-45,549,-936,17.8,0.6,-43.6,18.2,0.7,-42.7,5.73,2.51,-38.5,24.1
2012-02-25 01:08:00,0.0,1.9472,0.0009,403.01,0.27,-1.0,0.0,138.20,24.67,24.57,36.23,0.04,-272.73,-272.73,-45,549,-936,17.8,0.6,-43.6,18.2,0.7,-42.6,5.73,2.42,-38.5,24.1
2012-02-25 01:09:00,0.0,1.9469,0.0010,402.92,0.26,-1.0,0.0,138.21,24.67,24.58,36.24,0.04,-272.73,-272.73,-45,549,-936,17.8,0.6,-43.7,18.2,0.7,-42.7,5.73,2.44,-38.5,24.1
2012-02-25 01:10:00,0.0,1.9467,0.0009,403.07,0.23,-1.0,0.0,138.21,24.67,24.57,36.23,0.04,-272.73,-272.73,-45,549,-936,17.8,0.6,-43.5,18.2,0.7,-42.6,5.73,2.49,-38.4,24.1
2012-02-25 01:11:00,0.0,1.9468,0.0008,403.08,0.26,-1.0,0.0,138.21,24.67,24.57,36.23,0.04,-272.73,-272.73,-45,549,-936,17.8,0.6,-43.5,18.2,0.7,-42.6,5.73,2.39,-38.4,24.1
2012-02-25 01:12:00,0.0,1.9456,0.0011,402.96,0.25,-1.0,0.0,138.20,24.67,24.57,36.23,0.04,-272.73,-272.73,-45,550,-936,17.8,0.6,-43.6,18.2,0.7,-42.6,5.73,2.52,-38.4,24.1
2012-02-25 01:13:00,0.0,1.9420,0.0009,402.84,0.24,-1.0,0.0,138.20,24.66,24.57,36.23,0.04,-272.73,-272.73,-45,550,-936,17.9,0.6,-43.6,18.2,0.7,-42.6,5.73,2.39,-38.4,24.0
2012-02-25 01:14:00,0.0,1.9395,0.0018,402.84,0.24,-1.0,0.0,138.20,24.66,24.57,36.23,0.04,-272.73,-272.73,-45,550,-936,17.9,0.6,-43.6,18.2,0.7,-42.7,5.73,2.47,-38.4,24.0
2012-02-25 01:15:00,0.0,1.9383,0.0010,402.97,0.31,-1.0,0.0,138.20,24.66,24.58,36.22,0.04,-272.73,-272.73,-45,550,-936,17.9,0.6,-43.6,18.2,0.7,-42.6,5.73,2.47,-38.4,24.0
2012-02-25 01:16:00,0.0,1.9395,0.0015,402.87,0.29,-1.0,0.0,138.21,24.66,24.57,36.23,0.04,-272.73,-272.73,-45,550,-936,17.9,0.6,-43.5,18.2,0.7,-42.6,5.73,2.39,-38.4,24.0
2012-02-25 01:17:00,0.0,1.9364,0.0011,402.84,0.29,-1.0,0.0,138.20,24.66,24.57,36.23,0.04,-272.73,-272.73,-45,550,-936,17.9,0.6,-44.0,18.3,0.6,-42.9,5.73,2.52,-38.4,24.0
2012-02-25 01:18:00,0.0,1.9352,0.0009,402.74,0.28,-1.0,0.0,138.21,24.66,24.57,36.23,0.04,-272.73,-272.73,-45,550,-936,17.9,0.6,-44.0,18.3,0.6,-43.0,5.73,2.38,-38.4,24.1
2012-02-25 01:19:00,0.0,1.9354,0.0011,402.78,0.28,-1.0,0.0,138.20,24.67,24.57,36.23,0.04,-272.73,-272.73,-45,550,-936,17.9,0.6,-44.0,18.3,0.6,-43.0,5.73,2.48,-38.4,24.1
2012-02-25 01:20:00,0.0,1.9351,0.0008,402.78,0.27,-1.0,0.0,138.20,24.67,24.58,36.23,0.04,-272.73,-272.73,-45,550,-936,17.9,0.6,-44.0,18.3,0.6,-43.0,5.73,2.46,-38.4,24.1
2012-02-25 01:21:00,0.0,1.9359,0.0009,402.81,0.31,-1.0,0.0,138.20,24.67,24.57,36.23,0.04,-272.73,-272.73,-45,550,-936,17.9,0.6,-43.9,18.3,0.6,-43.0,5.73,2.39,-38.4,24.1
2012-02-25 01:22:00,0.0,1.9361,0.0010,402.85,0.28,-1.0,0.0,138.21,24.67,24.58,36.23,0.04,-272.73,-272.73,-45,550,-936,18.0,0.6,-44.2,18.3,0.6,-43.3,5.73,2.52,-38.4,24.1
2012-02-25 01:23:00,0.0,1.9352,0.0011,402.81,0.24,-1.0,0.0,138.21,24.68,24.57,36.23,0.04,-272.73,-272.73,-45,550,-936,18.0,0.6,-44.3,18.3,0.6,-43.3,5.73,2.38,-38.4,24.1
2012-02-25 01:24:00,0.0,1.9360,0.0010,402.80,0.27,-1.0,0.0,138.20,24.68,24.57,36.23,0.04,-272.73,-272.73,-45,550,-936,18.0,0.6,-44.3,18.3,0.6,-43.4,5.73,2.47,-38.3,24.1
2012-02-25 01:25:00,0.0,1.9411,0.0030,402.91,0.22,-1.0,0.0,138.20,24.68,24.57,36.23,0.04,-272.73,-272.73,-45,550,-936,18.0,0.6,-44.4,18.4,0.6,-43.4,5.73,2.46,-38.3,24.2
2012-02-25 01:26:00,0.0,1.9443,0.0009,402.92,0.23,-1.0,0.0,138.21,24.68,24.57,36.23,0.04,-272.73,-272.73,-45,550,-936,18.0,0.6,-44.3,18.4,0.6,-43.5,5.73,2.40,-38.3,24.2
2012-02-25 01:27:00,0.0,1.9457,0.0010,402.91,0.29,-1.0,0.0,138.20,24.69,24.57,36.23,0.04,-272.73,-272.73,-45,550,-936,18.1,0.6,-44.4,18.4,0.6,-43.7,5.73,2.51,-38.3,24.2
2012-02-25 01:28:00,0.0,1.9480,0.0010,402.95,0.25,-1.0,0.0,138.20,24.69,24.57,36.24,0.04,-272.73,-272.73,-45,551,-936,18.1,0.5,-44.7,18.4,0.6,-43.7,5.73,2.39,-38.2,24.2
2012-02-25 01:29:00,0.0,1.9487,0.0009,403.02,0.28,-1.0,0.0,138.20,24.70,24.57,36.23,0.04,-272.73,-272.73,-45,550,-936,18.1,0.5,-45.1,18.4,0.6,-44.2,5.73,2.46,-38.2,24.3
2012-02-25 01:30:00,0.0,1.9477,0.0008,402.95,0.29,-1.0,0.0,138.20,24.70,24.57,36.24,0.04,-272.73,-272.73,-45,551,-936,18.1,0.5,-45.5,18.5,0.5,-44.4,5.73,2.48,-38.2,24.4
2012-02-25 01:31:00,0.0,1.9467,0.0014,402.97,0.35,-1.0,0.0,138.21,24.70,24.57,36.23,0.04,-272.73,-272.73,-46,551,-936,18.2,0.5,-45.6,18.5,0.5,-44.7,5.73,2.38,-38.2,24.4
2012-02-25 01:32:00,0.0,1.9437,0.0012,402.95,0.28,-1.0,0.0,138.20,24.70,24.57,36.23,0.04,-272.73,-272.73,-45,551,-936,18.2,0.5,-46.0,18.5,0.5,-45.1,5.73,2.50,-38.2,24.4
2012-02-25 01:33:00,0.0,1.9427,0.0010,402.87,0.29,-1.0,0.0,138.21,24.70,24.57,36.23,0.04,-272.73,-272.73,-45,551,-936,18.2,0.5,-46.2,18.5,0.5,-45.0,5.73,2.43,-38.2,24.4
2012-02-25 01:34:00,0.0,1.9428,0.0009,403.00,0.28,-1.0,0.0,138.20,24.70,24.57,36.23,0.04,-272.73,-272.73,-45,551,-936,18.2,0.5,-46.3,18.5,0.5,-45.1,5.73,2.40,-38.1,24.4
2012-02-25 01:35:00,0.0,1.9433,0.0009,402.88,0.28,-1.0,0.0,138.20,24.70,24.57,36.24,0.04,-272.73,-272.73,-45,551,-936,18.2,0.5,-46.2,18.5,0.5,-45.0,5.73,2.51,-38.2,24.5
2012-02-25 01:36:00,0.0,1.9429,0.0010,402.89,0.30,-1.0,0.0,138.20,24.70,24.57,36.23,0.04,-272.73,-272.73,-45,551,-936,18.2,0.5,-46.2,18.5,0.5,-45.1,5.73,2.40,-38.2,24.6
2012-02-25 01:37:00,0.0,1.9427,0.0011,402.98,0.24,-1.0,0.0,138.20,24.71,24.57,36.23,0.04,-272.73,-272.73,-45,551,-936,18.2,0.5,-46.3,18.5,0.5,-45.1,5.73,2.44,-38.1,24.6
2012-02-25 01:38:00,0.0,1.9421,0.0010,402.90,0.28,-1.0,0.0,138.20,24.71,24.58,36.24,0.04,-272.73,-272.73,-45,551,-936,18.1,0.5,-46.2,18.5,0.5,-45.1,5.73,2.49,-38.1,24.6
2012-02-25 01:39:00,0.0,1.9421,0.0010,402.92,0.28,-1.0,0.0,138.20,24.72,24.57,36.24,0.04,-272.73,-272.73,-45,551,-936,18.1,0.5,-46.3,18.5,0.5,-45.1,5.73,2.38,-38.1,24.6
2012-02-25 01:40:00,0.0,1.9421,0.0010,403.04,0.29,-1.0,0.0,138.20,24.72,24.57,36.24,0.04,-272.73,-272.73,-45,551,-936,18.1,0.5,-46.2,18.5,0.5,-45.1,5.73,2.48,-38.1,24.6
2012-02-25 01:41:00,0.0,1.9424,0.0010,402.94,0.29,-1.0,0.0,138.20,24.73,24.57,36.24,0.04,-272.73,-272.73,-45,551,-936,18.1,0.5,-46.2,18.5,0.5,-45.1,5.73,2.45,-38.1,24.7
2012-02-25 01:42:00,0.0,1.9421,0.0009,402.98,0.27,-1.0,0.0,138.20,24.73,24.57,36.24,0.04,-272.73,-272.73,-45,551,-937,18.1,0.5,-46.3,18.5,0.5,-45.1,5.73,2.39,-38.1,24.7
2012-02-25 01:43:00,0.0,1.9404,0.0013,402.95,0.26,-1.0,0.0,138.20,24.73,24.57,36.23,0.04,-272.73,-272.73,-45,551,-936,18.1,0.5,-46.2,18.5,0.5,-45.1,5.73,2.51,-38.1,24.6
2012-02-25 01:44:00,0.0,1.9383,0.0011,402.96,0.24,-1.0,0.0,138.20,24.73,24.57,36.23,0.04,-272.73,-272.73,-45,551,-936,18.1,0.5,-46.3,18.5,0.5,-45.1,5.73,2.39,-38.1,24.6
2012-02-25 01:45:00,0.0,1.9355,0.0011,402.90,0.26,-1.0,0.0,138.20,24.73,24.58,36.24,0.04,-272.73,-272.73,-46,551,-936,18.1,0.5,-46.2,18.5,0.5,-45.1,5.73,2.46,-38.1,24.6
2012-02-25 01:46:00,0.0,1.9360,0.0010,402.96,0.28,-1.0,0.0,138.20,24.73,24.57,36.23,0.04,-272.73,-272.73,-45,551,-936,18.1,0.5,-46.3,18.5,0.5,-45.1,5.73,2.47,-38.1,24.6
2012-02-25 01:47:00,0.0,1.9360,0.0009,403.02,0.26,-1.0,0.0,138.20,24.74,24.57,36.23,0.04,-272.73,-272.73,-46,551,-936,18.1,0.5,-46.2,18.5,0.5,-45.1,5.73,2.38,-38.1,24.6
2012-02-25 01:48:00,0.0,1.9361,0.0009,402.96,0.28,-1.0,0.0,138.20,24.74,24.57,36.23,0.04,-272.73,-272.74,-45,551,-936,18.1,0.5,-46.3,18.5,0.5,-45.2,5.73,2.51,-38.1,24.6
2012-02-25 01:49:00,0.0,1.9363,0.0009,402.97,0.32,-1.0,0.0,138.20,24.74,24.57,36.24,0.04,-272.73,-272.73,-46,551,-936,18.1,0.5,-46.3,18.5,0.5,-45.1,5.73,2.41,-38.2,24.5
2012-02-25 01:50:00,0.0,1.9365,0.0009,402.86,0.25,-1.0,0.0,138.20,24.75,24.57,36.24,0.04,-272.73,-272.73,-45,551,-936,18.1,0.5,-46.2,18.5,0.5,-45.1,5.73,2.43,-38.2,24.6
2012-02-25 01:51:00,0.0,1.9368,0.0009,402.91,0.25,-1.0,0.0,138.20,24.75,24.57,36.24,0.04,-272.73,-272.74,-45,551,-936,18.1,0.4,-46.4,18.5,0.5,-45.1,5.73,2.49,-38.2,24.6
2012-02-25 01:52:00,0.0,1.9364,0.0009,402.84,0.24,-1.0,0.0,138.20,24.75,24.57,36.24,0.04,-272.73,-272.73,-45,551,-936,18.1,0.5,-46.3,18.5,0.5,-45.1,5.73,2.37,-38.2,24.5
2012-02-25 01:53:00,0.0,1.9363,0.0008,402.89,0.25,-1.0,0.0,138.20,24.75,24.58,36.24,0.04,-272.73,-272.73,-45,551,-936,18.1,0.5,-46.2,18.5,0.5,-45.2,5.73,2.50,-38.2,24.5
2012-02-25 01:54:00,0.0,1.9371,0.0010,402.93,0.29,-1.0,0.0,138.20,24.75,24.57,36.23,0.04,-272.73,-272.73,-46,551,-936,18.1,0.4,-46.3,18.5,0.5,-45.1,5.73,2.41,-38.1,24.5
2012-02-25 01:55:00,0.0,1.9375,0.0009,402.94,0.27,-1.0,0.0,138.20,24.76,24.57,36.23,0.04,-272.73,-272.73,-45,551,-936,18.1,0.5,-46.1,18.5,0.5,-45.1,5.73,2.44,-37.8,24.6
2012-02-25 01:56:00,0.0,1.9367,0.0008,403.02,0.23,-1.0,0.0,138.20,24.76,24.57,36.23,0.04,-272.73,-272.73,-46,551,-936,18.1,0.5,-45.7,18.5,0.5,-45.0,5.73,2.50,-37.8,24.6
2012-02-25 01:57:00,0.0,1.9363,0.0009,403.09,0.28,-1.0,0.0,138.20,24.77,24.58,36.23,0.04,-272.73,-272.73,-45,551,-936,18.1,0.5,-45.7,18.5,0.5,-44.6,5.73,2.37,-37.8,24.5
2012-02-25 01:58:00,0.0,1.9367,0.0008,403.05,0.30,-1.0,0.0,138.20,24.77,24.57,36.23,0.04,-272.73,-272.73,-46,551,-936,18.1,0.5,-45.4,18.5,0.5,-44.4,5.73,2.50,-37.8,24.5
2012-02-25 01:59:00,0.0,1.9365,0.0009,403.02,0.26,-1.0,0.0,138.20,24.77,24.57,36.23,0.04,-272.73,-272.73,-45,551,-936,18.1,0.5,-45.2,18.5,0.6,-44.1,5.73,2.43,-37.8,24.5
2012-02-25 02:00:00,0.0,1.9365,0.0010,402.93,0.30,-1.0,0.0,138.20,24.77,24.58,36.23,0.04,-272.73,-272.73,-46,552,-936,18.1,0.5,-44.7,18.5,0.6,-44.1,5.73,2.41,-37.8,24.5
2012-02-25 02:01:00,0.0,1.9365,0.0009,402.87,0.24,-1.0,0.0,138.20,24.77,24.58,36.24,0.04,-272.73,-272.73,-45,551,-936,18.1,0.5,-44.7,18.5,0.6,-43.7,5.73,2.51,-37.9,24.5
2012-02-25 02:02:00,0.0,1.9369,0.0010,402.98,0.31,-1.0,0.0,138.20,24.77,24.57,36.23,0.04,-272.73,-272.73,-46,551,-936,18.1,0.5,-44.7,18.5,0.6,-43.8,5.73,2.38,-37.9,24.5
2012-02-25 02:03:00,0.0,1.9369,0.0009,402.87,0.27,-1.0,0.0,138.20,24.78,24.58,36.24,0.04,-272.73,-272.73,-46,551,-936,18.1,0.5,-44.7,18.5,0.6,-43.7,5.73,2.47,-37.9,24.5
2012-02-25 02:04:00,0.0,1.9368,0.0010,402.92,0.26,-1.0,0.0,138.20,24.78,24.57,36.24,0.04,-272.73,-272.73,-45,551,-936,18.1,0.6,-44.3,18.5,0.6,-43.7,5.73,2.47,-37.9,24.5
2012-02-25 02:05:00,0.0,1.9368,0.0011,402.94,0.26,-1.0,0.0,138.20,24.78,24.57,36.24,0.04,-272.73,-272.73,-46,551,-936,18.1,0.6,-44.2,18.5,0.6,-43.3,5.73,2.38,-37.9,24.5
2012-02-25 02:06:00,0.0,1.9370,0.0011,402.89,0.32,-1.0,0.0,138.20,24.78,24.57,36.24,0.04,-272.73,-272.73,-45,552,-936,18.1,0.6,-44.3,18.5,0.6,-43.3,5.73,2.51,-37.9,24.5
2012-02-25 02:07:00,0.0,1.9374,0.0010,403.10,0.27,-1.0,0.0,138.20,24.78,24.57,36.23,0.04,-272.73,-272.73,-46,551,-936,18.1,0.6,-44.2,18.5,0.6,-43.3,5.73,2.39,-37.9,24.5
2012-02-25 02:08:00,0.0,1.9370,0.0011,402.96,0.26,-1.0,0.0,138.20,24.79,24.58,36.23,0.04,-272.73,-272.73,-45,551,-936,18.1,0.6,-43.9,18.5,0.6,-43.0,5.73,2.45,-37.9,24.5
2012-02-25 02:09:00,0.0,1.9373,0.0011,402.97,0.26,-1.0,0.0,138.20,24.79,24.58,36.23,0.04,-272.73,-272.73,-46,552,-936,18.1,0.6,-43.9,18.5,0.6,-42.9,5.73,2.49,-37.9,24.5
2012-02-25 02:10:00,0.0,1.9378,0.0009,403.01,0.22,-1.0,0.0,138.20,24.79,24.58,36.23,0.04,-272.73,-272.73,-46,551,-936,18.1,0.6,-43.8,18.5,0.6,-42.8,5.73,2.37,-37.9,24.5
2012-02-25 02:11:00,0.0,1.9380,0.0010,402.99,0.25,-1.0,0.0,138.20,24.79,24.57,36.23,0.04,-272.73,-272.73,-46,552,-936,18.1,0.6,-43.8,18.5,0.6,-42.8,5.73,2.50,-37.9,24.5
2012-02-25 02:12:00,0.0,1.9385,0.0008,402.92,0.27,-1.0,0.0,138.20,24.79,24.58,36.23,0.04,-272.73,-272.73,-46,551,-936,18.1,0.6,-43.8,18.5,0.6,-42.9,5.73,2.43,-37.9,24.5
2012-02-25 02:13:00,0.0,1.9385,0.0010,402.93,0.28,-1.0,0.0,138.20,24.79,24.58,36.23,0.04,-272.73,-272.73,-45,552,-936,18.1,0.6,-43.8,18.5,0.6,-42.9,5.73,2.41,-37.9,24.5
2012-02-25 02:14:00,0.0,1.9393,0.0008,402.98,0.27,-1.0,0.0,138.20,24.79,24.58,36.23,0.04,-272.73,-272.73,-46,551,-936,18.1,0.6,-43.7,18.5,0.6,-42.8,5.73,2.51,-37.9,24.5
2012-02-25 02:15:00,0.0,1.9397,0.0009,402.94,0.24,-1.0,0.0,138.20,24.79,24.58,36.23,0.04,-272.73,-272.74,-45,551,-936,18.1,0.6,-43.4,18.5,0.7,-42.6,5.73,2.38,-37.9,24.5
2012-02-25 02:16:00,0.0,1.9395,0.0009,402.93,0.23,-1.0,0.0,138.20,24.79,24.58,36.24,0.04,-272.73,-272.73,-46,551,-936,18.1,0.6,-43.5,18.5,0.7,-42.5,5.73,2.47,-37.9,24.5
2012-02-25 02:17:00,0.0,1.9396,0.0010,402.98,0.29,-1.0,0.0,138.20,24.80,24.57,36.23,0.04,-272.73,-272.73,-45,551,-936,18.2,0.6,-43.4,18.5,0.7,-42.4,5.73,2.46,-37.9,24.5
2012-02-25 02:18:00,0.0,1.9373,0.0010,402.91,0.29,-1.0,0.0,138.20,24.80,24.58,36.23,0.04,-272.73,-272.73,-46,551,-936,18.2,0.6,-43.0,18.5,0.7,-42.5,5.73,2.38,-37.9,24.5